Woodlawn, VA

3:12 AM EST on February 27, 2017 (GMT -0500)
Twin County

Weather History for KHLX - January, 2014

Change the Weather History Date:

Sunday, January 19, 2014

  Actual Average (KBLF) Record (KBLF)
Temperature  
Mean Temperature 30 °F -  
Max Temperature 37 °F 37 °F 60 °F (1996)
Min Temperature 24 °F 22 °F -18 °F (1994)
Degree Days  
Heating Degree Days 34    
Moisture  
Dew Point 17 °F    
Average Humidity 55    
Maximum Humidity 80    
Minimum Humidity 44    
Precipitation  
Precipitation 0.00 in - - ()
Sea Level Pressure  
Sea Level Pressure 29.87 in    
Wind  
Wind Speed 7 mph (WSW)    
Max Wind Speed 20 mph    
Max Gust Speed 31 mph    
Visibility 10 miles    
Events Snow    
Averages and records for this station are not official NWS values.
T = Trace of Precipitation, MM = Missing Value Source: NWS Daily Summary

Daily Weather History Graph

Daily Weather History Graph

Search for Another Location

Airport or City:

Trip Planner

Search our weather history database for the weather conditions in past years. The results will help you decide how hot, cold, wet, or windy it might be!

Date:

Astronomy

Jan. 19, 2014 Rise Set
Actual Time 7:33 AM EST 5:34 PM EST
Civil Twilight 7:05 AM EST 6:02 PM EST
Nautical Twilight 6:33 AM EST 6:34 PM EST
Astronomical Twilight 6:02 AM EST 7:05 PM EST
Moon 9:04 PM EST (1/19) 9:08 AM EST (1/19)
Length of Visible Light 10h 57m
Length of Day
10h 01m
Waning Gibbous, 89% of the Moon is Illuminated
Jan 19
Waning Gibbous
Jan 24
Last Quarter
Jan 30
New
Feb 6
First Quarter
Feb 14
Full

Hourly Weather History & Observations

Time (EST) Temp. Windchill Dew Point Humidity Pressure Visibility Wind Dir Wind Speed Gust Speed Precip Events Conditions
12:15 AM 24.8 °F 19.1 °F 10.4 °F 54% 29.85 in 10.0 mi SSW 4.6 mph - N/A   Scattered Clouds
12:35 AM 26.6 °F - 10.4 °F 51% 29.84 in 10.0 mi Calm Calm - N/A   Scattered Clouds
12:55 AM 26.6 °F 21.2 °F 8.6 °F 47% 29.83 in 10.0 mi South 4.6 mph - N/A   Overcast
1:15 AM 26.6 °F 19.1 °F 8.6 °F 47% 29.83 in 10.0 mi South 6.9 mph - N/A   Mostly Cloudy
1:35 AM 28.4 °F 21.2 °F 10.4 °F 47% 29.83 in 10.0 mi South 6.9 mph - N/A   Mostly Cloudy
1:55 AM 28.4 °F 22.2 °F 10.4 °F 47% 29.83 in 10.0 mi South 5.8 mph - N/A   Mostly Cloudy
2:15 AM 28.4 °F 23.3 °F 10.4 °F 47% 29.83 in 10.0 mi South 4.6 mph - N/A   Mostly Cloudy
2:35 AM 28.4 °F 20.4 °F 10.4 °F 47% 29.82 in 10.0 mi South 8.1 mph - N/A   Scattered Clouds
2:55 AM 30.2 °F 22.6 °F 10.4 °F 44% 29.82 in 10.0 mi South 8.1 mph - N/A   Mostly Cloudy
3:15 AM 30.2 °F 22.6 °F 10.4 °F 44% 29.82 in 10.0 mi South 8.1 mph - N/A   Overcast
3:35 AM 30.2 °F 23.4 °F 10.4 °F 44% 29.82 in 10.0 mi South 6.9 mph - N/A   Overcast
3:55 AM 30.2 °F 22.6 °F 10.4 °F 44% 29.82 in 10.0 mi SSW 8.1 mph - N/A   Mostly Cloudy
4:15 AM 30.2 °F 21.9 °F 12.2 °F 47% 29.81 in 10.0 mi SSW 9.2 mph - N/A   Mostly Cloudy
4:35 AM 30.2 °F 24.3 °F 12.2 °F 47% 29.82 in 10.0 mi SW 5.8 mph - N/A   Overcast
4:55 AM 30.2 °F 25.4 °F 12.2 °F 47% 29.82 in 10.0 mi SW 4.6 mph - N/A   Mostly Cloudy
5:15 AM 30.2 °F - 12.2 °F 47% 29.82 in 10.0 mi Calm Calm - N/A   Scattered Clouds
5:35 AM 30.2 °F 26.7 °F 12.2 °F 47% 29.82 in 10.0 mi WSW 3.5 mph - N/A   Scattered Clouds
5:55 AM 30.2 °F - 12.2 °F 47% 29.82 in 10.0 mi Calm Calm - N/A   Scattered Clouds
6:15 AM 30.2 °F 26.7 °F 12.2 °F 47% 29.82 in 10.0 mi SW 3.5 mph - N/A   Scattered Clouds
6:35 AM 30.2 °F 26.7 °F 12.2 °F 47% 29.83 in 10.0 mi WSW 3.5 mph - N/A   Mostly Cloudy
6:55 AM 30.2 °F 25.4 °F 12.2 °F 47% 29.84 in 10.0 mi WSW 4.6 mph - N/A   Overcast
7:15 AM 30.2 °F 25.4 °F 15.8 °F 55% 29.83 in 10.0 mi WSW 4.6 mph - N/A   Overcast
7:35 AM 30.2 °F 26.7 °F 17.6 °F 60% 29.83 in 10.0 mi SW 3.5 mph - N/A   Mostly Cloudy
7:55 AM 28.4 °F 22.2 °F 19.4 °F 69% 29.84 in 10.0 mi SSW 5.8 mph - N/A   Scattered Clouds
8:15 AM 30.2 °F 24.3 °F 21.2 °F 69% 29.86 in 10.0 mi SSW 5.8 mph - N/A   Mostly Cloudy
8:35 AM 30.2 °F 26.7 °F 21.2 °F 69% 29.86 in 4.0 mi SW 3.5 mph - N/A Snow Light Snow
8:55 AM 28.4 °F 24.6 °F 23.0 °F 80% 29.87 in 10.0 mi WSW 3.5 mph - N/A Snow Light Snow
9:15 AM 30.2 °F 25.4 °F 23.0 °F 75% 29.87 in 10.0 mi West 4.6 mph - N/A Snow Light Snow
9:35 AM 30.2 °F 21.9 °F 24.8 °F 80% 29.88 in 10.0 mi West 9.2 mph - N/A   Scattered Clouds
9:55 AM 33.8 °F 26.4 °F 24.8 °F 70% 29.88 in 10.0 mi WNW 9.2 mph - N/A   Scattered Clouds
10:15 AM 35.6 °F 26.6 °F 21.2 °F 56% 29.89 in 10.0 mi West 13.8 mph 19.6 mph N/A   Scattered Clouds
10:35 AM 37.4 °F 28.5 °F 21.2 °F 52% 29.90 in 10.0 mi West 15.0 mph 24.2 mph N/A   Mostly Cloudy
10:55 AM 35.6 °F 26.2 °F 21.2 °F 56% 29.91 in 10.0 mi West 15.0 mph 25.3 mph N/A   Mostly Cloudy
11:15 AM 35.6 °F 26.6 °F 21.2 °F 56% 29.91 in 10.0 mi West 13.8 mph 20.7 mph N/A   Mostly Cloudy
11:35 AM 35.6 °F 25.5 °F 19.4 °F 52% 29.91 in 10.0 mi West 17.3 mph 21.9 mph N/A   Mostly Cloudy
11:55 AM 33.8 °F 23.5 °F 21.2 °F 60% 29.91 in 10.0 mi WNW 16.1 mph 24.2 mph N/A   Overcast
12:15 PM 33.8 °F 23.2 °F 19.4 °F 56% 29.90 in 10.0 mi West 17.3 mph 25.3 mph N/A   Overcast
12:35 PM 33.8 °F 23.5 °F 21.2 °F 60% 29.90 in 10.0 mi WNW 16.1 mph 23.0 mph N/A   Overcast
12:55 PM 33.8 °F 23.5 °F 21.2 °F 60% 29.89 in 10.0 mi West 16.1 mph 23.0 mph N/A   Overcast
1:15 PM 33.8 °F 24.8 °F 19.4 °F 56% 29.89 in 10.0 mi West 12.7 mph 21.9 mph N/A   Overcast
1:35 PM 35.6 °F 26.6 °F 19.4 °F 52% 29.89 in 10.0 mi West 13.8 mph 25.3 mph N/A   Overcast
1:55 PM 35.6 °F 24.8 °F 19.4 °F 52% 29.89 in 10.0 mi West 19.6 mph 26.5 mph N/A   Overcast
2:15 PM 35.6 °F 24.8 °F 19.4 °F 52% 29.89 in 10.0 mi West 19.6 mph 31.1 mph N/A   Mostly Cloudy
2:35 PM 33.8 °F 22.8 °F 19.4 °F 56% 29.90 in 10.0 mi West 18.4 mph 26.5 mph N/A   Mostly Cloudy
2:55 PM 33.8 °F 23.5 °F 19.4 °F 56% 29.90 in 10.0 mi West 16.1 mph 27.6 mph N/A   Mostly Cloudy
3:15 PM 35.6 °F 27.1 °F 19.4 °F 52% 29.91 in 10.0 mi West 12.7 mph 23.0 mph N/A   Scattered Clouds
3:35 PM 33.8 °F 23.5 °F 19.4 °F 56% 29.91 in 10.0 mi West 16.1 mph 21.9 mph N/A   Scattered Clouds
3:55 PM 35.6 °F 26.6 °F 19.4 °F 52% 29.91 in 10.0 mi West 13.8 mph 20.7 mph N/A   Clear
4:15 PM 35.6 °F 28.0 °F 19.4 °F 52% 29.91 in 10.0 mi West 10.4 mph 16.1 mph N/A   Clear
4:35 PM 35.6 °F 27.5 °F 17.6 °F 48% 29.91 in 10.0 mi West 11.5 mph 18.4 mph N/A   Clear
4:55 PM 35.6 °F 28.0 °F 17.6 °F 48% 29.92 in 10.0 mi West 10.4 mph - N/A   Clear
5:15 PM 35.6 °F 29.9 °F 17.6 °F 48% 29.92 in 10.0 mi WSW 6.9 mph - N/A   Clear
5:35 PM 35.6 °F 29.9 °F 17.6 °F 48% 29.91 in 10.0 mi WSW 6.9 mph - N/A   Clear
5:55 PM 33.8 °F 27.7 °F 17.6 °F 52% 29.91 in 10.0 mi WSW 6.9 mph - N/A   Clear
6:15 PM 33.8 °F 28.6 °F 17.6 °F 52% 29.91 in 10.0 mi WSW 5.8 mph - N/A   Clear
6:35 PM 33.8 °F 29.6 °F 17.6 °F 52% 29.92 in 10.0 mi WSW 4.6 mph - N/A   Clear
6:55 PM 33.8 °F 30.8 °F 17.6 °F 52% 29.91 in 10.0 mi SW 3.5 mph - N/A   Clear
7:15 PM 32.0 °F 28.7 °F 17.6 °F 55% 29.91 in 10.0 mi WSW 3.5 mph - N/A   Clear
7:55 PM 32.0 °F 25.6 °F 17.6 °F 55% 29.91 in 10.0 mi WSW 6.9 mph - N/A   Clear
8:15 PM 32.0 °F 26.4 °F 17.6 °F 55% 29.91 in 10.0 mi SW 5.8 mph - N/A   Clear
8:35 PM 32.0 °F 28.7 °F 17.6 °F 55% 29.91 in 10.0 mi SW 3.5 mph - N/A   Clear
8:55 PM 30.2 °F 24.3 °F 17.6 °F 60% 29.90 in 10.0 mi SSW 5.8 mph - N/A   Clear
9:15 PM 30.2 °F - 19.4 °F 64% 29.90 in 10.0 mi Calm Calm - N/A   Clear
9:35 PM 30.2 °F - 19.4 °F 64% 29.90 in 10.0 mi Calm Calm - N/A   Clear
9:55 PM 30.2 °F 23.4 °F 19.4 °F 64% 29.90 in 10.0 mi SW 6.9 mph - N/A   Clear
10:15 PM 30.2 °F 24.3 °F 19.4 °F 64% 29.90 in 10.0 mi SW 5.8 mph - N/A   Clear
10:35 PM 30.2 °F 24.3 °F 19.4 °F 64% 29.90 in 10.0 mi SW 5.8 mph - N/A   Clear
10:55 PM 30.2 °F 24.3 °F 19.4 °F 64% 29.89 in 10.0 mi WSW 5.8 mph - N/A   Clear
11:15 PM 30.2 °F 26.7 °F 17.6 °F 60% 29.89 in 10.0 mi West 3.5 mph - N/A   Clear
11:35 PM 30.2 °F 25.4 °F 17.6 °F 60% 29.88 in 10.0 mi West 4.6 mph - N/A   Clear
11:55 PM 30.2 °F 26.7 °F 17.6 °F 60% 29.87 in 10.0 mi WSW 3.5 mph - N/A   Clear